Weather History for KAEX - April, 2013

Change the Weather History Date:

Wednesday, April 17, 2013

  Actual Average Record
Temperature  
Mean Temperature 80 °F 67 °F  
Max Temperature 87 °F 78 °F 92 °F (2006)
Min Temperature 72 °F 55 °F 39 °F (1921)
Degree Days  
Heating Degree Days 0 2  
Month to date heating degree days 61 54  
Since 1 July heating degree days 1800 1934  
Cooling Degree Days 15 3  
Month to date cooling degree days 58 47  
Year to date cooling degree days 92 100  
Growing Degree Days 30 (Base 50)    
Moisture  
Dew Point 71 °F    
Average Humidity 75    
Maximum Humidity 93    
Minimum Humidity 57    
Precipitation  
Precipitation 0.00 in 0.15 in 3.79 in (1900)
Month to date precipitation 2.16 2.90  
Year to date precipitation 20.00 17.63  
Snow  
Snow 0.00 in - 0.00 in ()
Month to date snowfall 0.0  
Since 1 July snowfall 0.0  
Snow Depth 0.00 in    
Sea Level Pressure  
Sea Level Pressure 29.96 in    
Wind  
Wind Speed 11 mph (SE)    
Max Wind Speed 22 mph    
Max Gust Speed 32 mph    
Visibility 9 miles    
Events      
T = Trace of Precipitation, MM = Missing Value Source: NWS Daily Summary

Daily Weather History Graph

Daily Weather History Graph

Search for Another Location

Airport or City:

Trip Planner

Search our weather history database for the weather conditions in past years. The results will help you decide how hot, cold, wet, or windy it might be!

Date:

Astronomy

Apr. 17, 2013 Rise Set
Actual Time 6:39 AM CDT 7:40 PM CDT
Civil Twilight 6:14 AM CDT 8:05 PM CDT
Nautical Twilight 5:44 AM CDT 8:35 PM CDT
Astronomical Twilight 5:14 AM CDT 9:05 PM CDT
Moon 12:01 PM CDT (4/17) 1:10 AM CDT (4/17)
Length of Visible Light 13h 50m
Length of Day
13h 00m
Waxing Crescent, 42% of the Moon is Illuminated
Apr 17
Waxing Crescent
Apr 18
First Quarter
Apr 25
Full
May 2
Last Quarter
May 9
New

Hourly Weather History & Observations

Time (CDT) Temp. Heat Index Dew Point Humidity Pressure Visibility Wind Dir Wind Speed Gust Speed Precip Events Conditions
12:35 AM 73.4 °F - 71.6 °F 94% 29.99 in 9.0 mi SSE 9.2 mph - N/A   Overcast
12:46 AM 73.4 °F - 71.6 °F 94% 29.99 in 9.0 mi SE 10.4 mph - N/A   Overcast
12:53 AM 73.9 °F - 72.0 °F 93% 29.99 in 9.0 mi SE 9.2 mph - N/A   Overcast
1:53 AM 73.9 °F - 72.0 °F 93% 29.99 in 9.0 mi SSE 9.2 mph - N/A   Overcast
2:53 AM 73.9 °F - 72.0 °F 93% 29.99 in 8.0 mi SE 5.8 mph - N/A   Overcast
3:53 AM 73.9 °F - 72.0 °F 93% 29.99 in 9.0 mi SE 6.9 mph - N/A   Overcast
4:53 AM 73.9 °F - 71.1 °F 91% 29.99 in 9.0 mi SE 5.8 mph - N/A   Overcast
5:53 AM 73.9 °F - 71.1 °F 91% 30.00 in 9.0 mi ESE 6.9 mph - N/A   Overcast
6:20 AM 73.4 °F - 71.6 °F 94% 29.99 in 9.0 mi ESE 8.1 mph - N/A   Overcast
6:40 AM 73.4 °F - 71.6 °F 94% 30.00 in 9.0 mi SE 4.6 mph - N/A   Overcast
6:53 AM 73.0 °F - 71.1 °F 93% 30.01 in 8.0 mi ESE 4.6 mph - N/A   Overcast
7:24 AM 73.4 °F - 71.6 °F 94% 30.01 in 7.0 mi SE 6.9 mph - N/A   Scattered Clouds
7:53 AM 73.9 °F - 71.1 °F 91% 30.02 in 8.0 mi ESE 9.2 mph - N/A   Mostly Cloudy
8:07 AM 73.4 °F - 71.6 °F 94% 30.01 in 8.0 mi SE 8.1 mph - N/A   Overcast
8:16 AM 73.4 °F - 71.6 °F 94% 30.01 in 8.0 mi ESE 8.1 mph - N/A   Overcast
8:17 AM 73.4 °F - 71.6 °F 94% 30.01 in 8.0 mi ESE 9.2 mph - N/A   Overcast
8:39 AM 75.2 °F - 71.6 °F 89% 30.01 in 8.0 mi ESE 6.9 mph - N/A   Overcast
9:30 AM 75.2 °F - 71.6 °F 89% 30.02 in 8.0 mi SE 8.1 mph - N/A   Overcast
9:53 AM 77.0 °F - 71.1 °F 82% 30.03 in 9.0 mi SE 11.5 mph - N/A   Mostly Cloudy
10:53 AM 80.1 °F 83.6 °F 71.1 °F 74% 30.02 in 10.0 mi ESE 15.0 mph 19.6 mph N/A   Mostly Cloudy
11:34 AM 82.4 °F 87.2 °F 71.6 °F 70% 30.00 in 10.0 mi SE 15.0 mph - N/A   Mostly Cloudy
11:53 AM 82.9 °F 87.5 °F 71.1 °F 67% 29.99 in 10.0 mi SE 17.3 mph 21.9 mph N/A   Mostly Cloudy
12:53 PM 84.0 °F 89.0 °F 71.1 °F 65% 29.97 in 10.0 mi SSE 10.4 mph 20.7 mph N/A   Mostly Cloudy
1:53 PM 84.0 °F 88.4 °F 70.0 °F 63% 29.96 in 10.0 mi SSE 13.8 mph 23.0 mph N/A   Mostly Cloudy
2:53 PM 86.0 °F 90.1 °F 69.1 °F 57% 29.94 in 10.0 mi SSE 12.7 mph 23.0 mph N/A   Scattered Clouds
3:53 PM 86.0 °F 90.1 °F 69.1 °F 57% 29.91 in 10.0 mi South 17.3 mph 24.2 mph N/A   Partly Cloudy
4:53 PM 84.9 °F 88.2 °F 68.0 °F 57% 29.88 in 10.0 mi SSE 17.3 mph 32.2 mph N/A   Scattered Clouds
5:04 PM 84.2 °F 87.3 °F 68.0 °F 58% 29.87 in 10.0 mi SSE 19.6 mph 25.3 mph N/A   Mostly Cloudy
5:53 PM 82.9 °F 85.8 °F 68.0 °F 60% 29.87 in 10.0 mi South 12.7 mph 24.2 mph N/A   Clear
6:53 PM 82.0 °F 85.5 °F 69.1 °F 65% 29.86 in 10.0 mi South 11.5 mph - N/A   Clear
7:53 PM 79.0 °F - 70.0 °F 74% 29.85 in 10.0 mi SSE 8.1 mph - N/A   Partly Cloudy
8:53 PM 77.0 °F - 70.0 °F 79% 29.86 in 10.0 mi SSE 11.5 mph - N/A   Clear
9:53 PM 75.9 °F - 71.1 °F 85% 29.87 in 10.0 mi SSE 10.4 mph - N/A   Clear
10:53 PM 75.9 °F - 71.1 °F 85% 29.86 in 10.0 mi SSE 9.2 mph - N/A   Mostly Cloudy
11:53 PM 75.9 °F - 70.0 °F 82% 29.86 in 10.0 mi SSE 10.4 mph - N/A   Overcast